Location: Kielce
(50.8833°N, 20.6167°E)
Time: 22:29:00
(UTC+02:00)

SR - Pass Details

Date: 24 April 2021
Orbit: 573 x 882 km, 66.7° (Epoch: 09 May)

Event Time Altitude Azimuth Distance (km) Brightness Sun altitude
Rises 13:51:47 0° 321° (NW) 3,491 ? 49.1°
Reaches altitude 10° 13:54:34 10° 330° (NNW) 2,541 ? 48.9°
Maximum altitude 13:59:56 35° 35° (NE) 1,368 ? 48.5°
Drops below altitude 10° 14:05:04 10° 100° (E) 2,422 ? 48.0°
Sets 14:07:39 0° 110° (ESE) 3,308 ? 47.8°
